Location: Newark
(46.1292°N, 1.0086°W)
Time: 10:00:33
(UTC+00:00)

A-11 Canister half - All Passes

Search period start: 15 November 2019 00:00
Search period end: 25 November 2019 00:00
Orbit: 1527 x 1682 km, 47.3° (Epoch: 14 November)

Date Brightness Start Highest point End Pass type
(mag) Time Alt. Az. Time Alt. Az. Time Alt. Az.
15 Nov - 10:02:14 10° SE 10:04:16 11° ESE 10:06:17 10° ESE daylight
15 Nov - 11:58:12 10° SSW 12:07:17 41° SE 12:16:08 10° ENE daylight
15 Nov - 14:01:45 10° WSW 14:11:42 83° SSE 14:21:18 10° ENE daylight
15 Nov - 16:07:10 10° W 16:17:01 84° N 16:26:31 10° E daylight
15 Nov - 18:12:31 10° WNW 18:22:00 66° SSW 18:31:12 10° SE visible
15 Nov - 20:18:27 10° W 20:25:41 25° SW 20:32:49 10° S visible
16 Nov - 11:36:41 10° SSW 11:45:41 40° SE 11:54:27 10° ENE daylight
16 Nov - 13:40:06 10° WSW 13:50:03 81° SSE 13:59:41 10° ENE daylight
16 Nov - 15:45:30 10° W 15:55:21 84° N 16:04:53 10° E daylight
16 Nov - 17:50:52 10° WNW 18:00:23 68° SSW 18:09:39 10° SE visible
16 Nov - 19:56:42 10° W 20:04:09 27° SW 20:11:28 10° S visible
17 Nov - 11:15:11 10° SSW 11:24:06 38° SE 11:32:47 10° ENE daylight
17 Nov - 13:18:26 10° WSW 13:28:24 79° SSE 13:38:04 10° ENE daylight
17 Nov - 15:23:49 10° W 15:33:42 84° N 15:43:15 10° E daylight
17 Nov - 17:29:11 10° WNW 17:38:47 70° SSW 17:48:04 10° SE visible
17 Nov - 19:34:57 10° WNW 19:42:36 28° SW 19:50:06 10° S visible
18 Nov - 10:53:42 10° SSW 11:02:30 36° SE 11:11:07 10° ENE daylight
18 Nov - 12:56:46 10° WSW 13:06:46 78° SSE 13:16:26 10° ENE daylight
18 Nov - 15:02:07 10° W 15:12:02 84° N 15:21:37 10° E daylight
18 Nov - 17:07:31 10° WNW 17:17:10 72° SSW 17:26:30 10° SE visible
18 Nov - 19:13:13 10° WNW 19:21:03 30° SW 19:28:44 10° S visible
19 Nov - 10:32:13 10° SSW 10:40:55 35° SE 10:49:25 10° ENE daylight
19 Nov - 12:35:08 10° WSW 12:45:07 76° SSE 12:54:48 10° ENE daylight
19 Nov - 14:40:26 10° W 14:50:22 84° N 14:59:58 10° E daylight
19 Nov - 16:45:52 10° WNW 16:55:33 74° SSW 17:04:55 10° ESE visible
19 Nov - 18:51:29 10° WNW 18:59:30 32° SW 19:07:20 10° SSE visible
20 Nov - 10:10:45 10° SSW 10:19:20 33° SE 10:27:44 10° ENE daylight
20 Nov - 12:13:29 10° WSW 12:23:28 74° SSE 12:33:10 10° ENE daylight
20 Nov - 14:18:44 10° W 14:28:43 84° N 14:38:21 10° E daylight
20 Nov - 16:24:11 10° WNW 16:33:55 76° SSW 16:43:20 10° ESE daylight
20 Nov - 18:29:46 10° WNW 18:37:57 33° SW 18:45:57 10° SSE visible
21 Nov - 09:49:18 10° SSW 09:57:45 32° SE 10:06:01 10° ENE daylight
21 Nov - 11:51:50 10° SW 12:01:50 73° SSE 12:11:32 10° ENE daylight
21 Nov - 13:57:02 10° W 14:07:02 84° N 14:16:42 10° E daylight
21 Nov - 16:02:30 10° WNW 16:12:17 77° SSW 16:21:44 10° ESE daylight
21 Nov - 18:08:02 10° WNW 18:16:23 35° SW 18:24:31 10° SSE visible
22 Nov - 09:27:51 10° S 09:36:10 30° SE 09:44:19 10° ENE daylight
22 Nov - 11:30:12 10° SW 11:40:11 71° SSE 11:49:54 10° ENE daylight
22 Nov - 13:35:21 10° W 13:45:22 84° N 13:55:03 10° E daylight
22 Nov - 15:40:50 10° WNW 15:50:40 79° SSW 16:00:08 10° ESE daylight
22 Nov - 17:46:20 10° WNW 17:54:49 37° SW 18:03:06 10° SSE visible
23 Nov - 09:06:26 10° S 09:14:34 29° SE 09:22:35 10° ENE daylight
23 Nov - 11:08:34 10° SW 11:18:32 69° SSE 11:28:16 10° ENE daylight
23 Nov - 13:13:39 10° W 13:23:42 84° N 13:33:26 10° E daylight
23 Nov - 15:19:09 10° WNW 15:29:01 81° SSW 15:38:32 10° ESE daylight
23 Nov - 17:24:37 10° WNW 17:33:15 38° SW 17:41:39 10° SSE visible
24 Nov - 08:45:02 10° S 08:53:00 27° SE 09:00:51 10° E daylight
24 Nov - 10:46:56 10° SW 10:56:54 67° SSE 11:06:37 10° ENE daylight
24 Nov - 12:51:57 10° W 13:02:02 85° N 13:11:47 10° E daylight
24 Nov - 14:57:28 10° WNW 15:07:23 82° SSW 15:16:55 10° ESE daylight
24 Nov - 17:02:55 10° WNW 17:11:41 40° SW 17:20:11 10° SSE visible
